STARLINK-11189 [DTC]

Last updated on Sat Aug 03 2024 00:02:04 GMT+0000 (Coordinated Universal Time)

1 60188U 24124F 24215.56480287 .00022704 00000+0 14250-3 0 9999 2 60188 53.1587 161.2900 0001748 62.2121 297.9077 15.76703588 4787

Satellite not in orbit

STARLINK-11189 [DTC]